Location: Ferintosh
(52.7647°N, 112.9692°W)
Time: 19:17:01
(UTC+00:00)

Explorer 7 - Pass Details

Date: 26 May 2024
Orbit: 466 x 622 km, 50.3° (Epoch: 16 June)

Event Time Altitude Azimuth Distance (km) Brightness Sun altitude
Rises 04:13:05 0° 193° (SSW) 2,498 9.9 -4.7°
Reaches altitude 10° 04:16:29 10° 159° (SSE) 1,646 8.7 -5.1°
Maximum altitude 04:17:46 12° 139° (SE) 1,565 8.5 -5.2°
Drops below altitude 10° 04:19:04 10° 118° (ESE) 1,670 8.7 -5.4°
Sets 04:22:36 0° 85° (E) 2,593 9.9 -5.7°
